AEROCUBE 8D

Last updated on Thu Oct 16 2025 00:03:48 GMT+0000 (Coordinated Universal Time)

1 41852U 16067E 25288.56456325 .00009917 00000+0 46860-3 0 9993 2 41852 98.0980 135.4375 0002367 257.8899 102.2069 15.19636620488852
UTC large
Height (km)
Speed (km/s)
/
Latitude / Longitude
Inclination (degrees)
Orbital Period (minutes)
Azimuth
Elevation
Range (km)
Doppler Factor

Next 0 passes for location: London (51.5072 / 0.1276)

Sorry there are no passes over London.